GPS BIIF-8 (PRN 03)

Last updated on Sun Apr 12 2026 00:03:23 GMT+0000 (Coordinated Universal Time)

1 40294U 14068A 26100.61796300 -.00000063 00000+0 00000+0 0 9997 2 40294 56.9442 33.5585 0064580 68.5073 292.1794 2.00572279 83854
UTC large
Height (km)
Speed (km/s)
/
Latitude / Longitude
Inclination (degrees)
Orbital Period (minutes)
Azimuth
Elevation
Range (km)
Doppler Factor

Next 0 passes for location: London (51.5072 / 0.1276)

Sorry there are no passes over London.
GPS BIIF-8 (PRN 03)